Home   Weather   Taichung   Past weeks

Flag for Taiwan Past Weather in Taichung, Taiwan — Yesterday and Last 2 Weeks

Now
72 °F

Scattered showers. Partly sunny.


Feels Like: 72 °F
Forecast: 70 / 84 °F
Wind: 7 mph from Southeast

Location: Chiang Kai Shek

Current Time: Apr 24, 2017 at 9:56:20 am

Latest Report: Apr 24, 2017 at 9:30 am


Visibility: N/A

Pressure: 29.98 "Hg

Humidity: 78%

Dew Point: 64 °F

Location of TaichungLocation

Past Weather in Taichung — Graph

°F

Taichung Temperature Yesterday

Maximum temperature yesterday: 75 °F (at 1:30 pm)
Minimum temperature yesterday: 63 °F (at 12:00 am)
Average temperature yesterday: 69 °F

High & Low Weather Summary for the Past Weeks

 TemperatureHumidityPressure
High91 °F (Apr 10, 1:00 pm)100% (Apr 11, 7:35 am)30.07 "Hg (Apr 11, 7:35 am)
Low63 °F (Apr 12, 5:36 am)44% (Apr 23, 2:30 pm)29.59 "Hg (Apr 10, 4:44 pm)
Average74 °F83%29.86 "Hg
* Reported Apr 9 8:00 am — Apr 24 8:30 am, Taichung, Weather by CustomWeather, © 2017

Note: Actual official high and low records may vary slightly from our data, if they occured in-between our weather recording intervals... More about our weather records

Advertising

Taichung Weather History for the Previous 24 Hours

Scroll right to see more
 ConditionsComfort  
Time TempWeatherWind HumidityBarometerVisibility
8:30 am
Mon, Apr 24
72 °FPartly sunny.9 mph78%29.98 "HgN/A
8:00 am72 °FPartly sunny.3 mph78%29.98 "HgN/A
7:30 am70 °FPartly sunny.3 mph83%29.98 "HgN/A
7:00 am70 °FPartly sunny.8 mph78%29.95 "HgN/A
6:30 am70 °FPartly sunny.7 mph78%29.95 "HgN/A
6:00 am70 °FPartly sunny.6 mph78%29.95 "HgN/A
5:30 am68 °FPartly sunny.5 mph83%29.95 "HgN/A
4:30 am68 °FPassing clouds.2 mph83%29.92 "HgN/A
4:00 am68 °FPassing clouds.1 mph83%29.92 "HgN/A
3:30 am68 °FPassing clouds.1 mph78%29.92 "HgN/A
3:00 am68 °FPassing clouds.1 mph78%29.92 "HgN/A
2:30 am66 °FPassing clouds.2 mph83%29.92 "HgN/A
2:00 am68 °FPassing clouds.3 mph78%29.92 "HgN/A
1:30 am68 °FPassing clouds.2 mph73%29.92 "HgN/A
1:00 am68 °FPassing clouds.1 mph73%29.95 "HgN/A
12:30 am70 °FPassing clouds.5 mph69%29.95 "HgN/A
12:00 am68 °FPassing clouds.9 mph69%29.95 "HgN/A
11:30 pm
Sun, Apr 23
70 °FPassing clouds.9 mph64%29.98 "HgN/A
11:00 pm68 °FPassing clouds.9 mph64%29.98 "HgN/A
10:30 pm68 °FPassing clouds.10 mph64%29.98 "HgN/A
10:00 pm68 °FPassing clouds.14 mph60%29.98 "HgN/A
9:00 pm68 °FPartly cloudy.13 mph60%29.98 "HgN/A
8:00 pm68 °FPartly cloudy.15 mph60%29.98 "HgN/A
7:30 pm68 °FPartly cloudy.13 mph60%29.98 "HgN/A
7:00 pm68 °FPartly cloudy.15 mph60%29.95 "HgN/A
6:30 pm70 °FPartly cloudy.15 mph53%29.95 "HgN/A
6:00 pm70 °FBroken clouds.16 mph53%29.95 "HgN/A
5:30 pm70 °FBroken clouds.18 mph53%29.95 "HgN/A
5:00 pm72 °FBroken clouds.16 mph50%29.95 "HgN/A
4:58 pm72 °FBroken clouds.17 mph50%29.95 "HgN/A
4:30 pm72 °FBroken clouds.18 mph53%29.95 "HgN/A
4:00 pm72 °FBroken clouds.20 mph53%29.95 "HgN/A
3:30 pm73 °FBroken clouds.21 mph47%29.95 "HgN/A
3:00 pm73 °FBroken clouds.21 mph47%29.95 "HgN/A
2:30 pm73 °FPartly sunny.21 mph44%29.95 "HgN/A
2:00 pm73 °FPartly sunny.21 mph47%29.95 "HgN/A
1:30 pm75 °FPartly sunny.22 mph47%29.95 "HgN/A
1:00 pm73 °FPartly sunny.22 mph50%29.95 "HgN/A
12:30 pm73 °FPartly sunny.22 mph47%29.95 "HgN/A
12:00 pm73 °FPartly sunny.21 mph50%29.98 "HgN/A
11:30 am73 °FPartly sunny.20 mph53%29.98 "HgN/A
10:56 am72 °FPartly sunny.22 mph53%29.98 "HgN/A
10:30 am72 °FPartly sunny.22 mph53%29.98 "HgN/A
10:00 am72 °FPartly sunny.23 mph53%29.98 "HgN/A
9:43 am72 °FPartly sunny.18 mph57%29.98 "HgN/A
9:30 am72 °FPartly sunny.18 mph57%29.98 "HgN/A
9:00 am70 °FPartly sunny.20 mph60%30.01 "HgN/A
Weather by CustomWeather, © 2017

See weather overviewHow to use our weather pages